La Pastourelle - 20/05/2016

Raid VTT des 3 vallées 60 Km

365 participants classés


Retour au Sommaire - Signaler une erreur - Faire défiler





1 2 3 4 5 6 7 8 /fin /tout

page suivante ->

Pl Do. Nom - Surname Prénom - Name S-Cat /cat TEMPS - Time Km/h /sx
1 6803 PELE SEBASTIEN MMASTER1 1 03:02:09 19,76 1
2 6315 GAUTHIER ANTHONY MMASTER1 2 03:02:45 19,70 2
3 6391 VIALAT ERIC MMASTER1 3 03:07:32 19,20 3
4 6336 BOMBARDO GREGORY MMASTER1 4 03:18:28 18,14 4
5 6394 COLLOT ROMAIN MMASTER1 5 03:21:01 17,91 5
6 6334 SERIEYS BERTRAND MJU 1 03:25:03 17,56 6
7 6078 TERMENIERE VALENTIN MES 1 03:26:46 17,41 7
8 6392 RANVIAL REMY MES 2 03:29:17 17,20 8
9 6805 ROGIER VINCENT MMASTER1 6 03:29:36 17,18 9
10 6184 MONIER GUILLAUME MMASTER1 7 03:31:28 17,02 10
11 6338 ENJOLRAS VALENTIN MES 3 03:31:55 16,99 11
12 6809 SAINT ANTOINE JULIEN MES 4 03:32:00 16,98 12
13 6808 LACOSTE DAVID MMASTER1 8 03:33:40 16,85 13
14 6345 GAULANDEAU JULIEN MMASTER1 9 03:34:03 16,82 14
15 6381 PARISOT ALEXANDRE MSE 1 03:35:15 16,72 15
16 6335 SERIEYS FRANCIS MMASTER2 1 03:35:49 16,68 16
17 6124 MALLEGOL DIDIER MMASTER3 1 03:35:51 16,68 17
18 6025 DUGAT CLÉMENT MSE 2 03:35:56 16,67 18
19 6347 IRIGOYEN PATRICK MMASTER3 2 03:36:24 16,63 19
20 6222 TRIOULLIER GWENAEL MMASTER2 2 03:36:29 16,63 20
21 6286 PASCAREL ROMAIN MMASTER1 10 03:38:53 16,45 21
22 6322 REGIS CORENTIN MES 5 03:39:59 16,36 22
23 6329 PAGÈS VINCENT MMASTER1 11 03:40:08 16,35 23
24 6341 ARNOUX MICHAEL MMASTER1 12 03:40:51 16,30 24
25 6247 ANGER XAVIER MMASTER2 3 03:42:33 16,18 25
26 6289 CHAUME DAVID MMASTER2 4 03:44:14 16,05 26
27 6249 CONTANT CHRISTOPHE MMASTER2 5 03:45:46 15,94 27
28 6295 DEVAUX LUDOVIC MMASTER1 13 03:45:47 15,94 28
29 6344 MATTON LUCAS MJU 2 03:46:22 15,90 29
30 6183 CHABANAS BRUNO MMASTER1 14 03:46:32 15,89 30
31 6125 BRETAGNOLLE SERGE MMASTER3 3 03:48:33 15,75 31
32 6361 FONTENEAU JEAN-CHARLES MMASTER2 6 03:48:35 15,75 32
33 6116 RUNGOAT MORGAN MMASTER1 15 03:50:18 15,63 33
34 6362 GELY FRANCK MMASTER2 7 03:52:04 15,51 34
35 6279 BIGOT SYLVAIN MMASTER1 16 03:52:25 15,49 35
36 6318 FILLIAT CHRISTIAN MMASTER2 8 03:54:12 15,37 36
37 6288 VEYSSEYRE GILLES MMASTER2 9 03:55:03 15,31 37
38 6324 AURIACOMBE FREDERIC MMASTER2 10 03:55:17 15,30 38
39 6343 TACHOT LAURENT MMASTER2 11 03:55:42 15,27 39
40 6339 MAVEL ALAIN MMASTER2 12 03:56:53 15,20 40
41 6349 DURIF YOHANN MSE 3 03:57:06 15,18 41
42 6071 VERDUN DEWIS MMASTER1 17 03:57:10 15,18 42
43 6340 DA ROCHA JEREMY MMASTER1 18 03:57:13 15,18 43
44 6068 DELMAS GHISLAIN MMASTER2 13 03:57:14 15,17 44
45 6316 LE BOZEC YANNICK MMASTER1 19 03:57:38 15,15 45
46 6257 LAMOUROUX STEPHANE MMASTER2 14 03:58:10 15,11 46
47 6390 SAVAJOLS FLORIAN MSE 4 03:58:57 15,07 47
48 6293 BERGAUD SEBASTIEN MMASTER2 15 03:59:47 15,01 48
49 6303 GRAMONT PATRICE MMASTER2 16 04:00:10 14,99 49
50 6269 CHAMPEVAL FREDERIC MMASTER3 4 04:00:18 14,98 50

Aucun commentaires pour le moment, donnez votre avis, vos impressions avant, pendant! et après la course

Déjà membre? Identifiez-vous pour commenter l'épreuve ou créer un compte